﻿測定場所 (Monitoring sites),日付 (Measurement date),時間 (Measurement time),線量率 最大値 (max) μGy/h,線量率 最小値 (min) μGy/h,線量率 平均値 (average) μGy/h,
新宿 (Shinjuku),2012-01-08,23:00～23:59,0.0546,0.0490,0.0517,
新宿 (Shinjuku),2012-01-08,22:00～22:59,0.0548,0.0491,0.0521,
新宿 (Shinjuku),2012-01-08,21:00～21:59,0.0551,0.0492,0.0518,
新宿 (Shinjuku),2012-01-08,20:00～20:59,0.0547,0.0490,0.0517,
新宿 (Shinjuku),2012-01-08,19:00～19:59,0.0543,0.0496,0.0518,
新宿 (Shinjuku),2012-01-08,18:00～18:59,0.0540,0.0492,0.0516,
新宿 (Shinjuku),2012-01-08,17:00～17:59,0.0534,0.0493,0.0512,
新宿 (Shinjuku),2012-01-08,16:00～16:59,0.0553,0.0490,0.0515,
新宿 (Shinjuku),2012-01-08,15:00～15:59,0.0541,0.0489,0.0515,
新宿 (Shinjuku),2012-01-08,14:00～14:59,0.0537,0.0495,0.0517,
新宿 (Shinjuku),2012-01-08,13:00～13:59,0.0539,0.0483,0.0514,
新宿 (Shinjuku),2012-01-08,12:00～12:59,0.0554,0.0492,0.0517,
新宿 (Shinjuku),2012-01-08,11:00～11:59,0.0542,0.0490,0.0519,
新宿 (Shinjuku),2012-01-08,10:00～10:59,0.0545,0.0499,0.0521,
新宿 (Shinjuku),2012-01-08,09:00～09:59,0.0557,0.0505,0.0523,
新宿 (Shinjuku),2012-01-08,08:00～08:59,0.0544,0.0501,0.0523,
新宿 (Shinjuku),2012-01-08,07:00～07:59,0.0543,0.0497,0.0518,
新宿 (Shinjuku),2012-01-08,06:00～06:59,0.0547,0.0496,0.0522,
新宿 (Shinjuku),2012-01-08,05:00～05:59,0.0553,0.0499,0.0525,
新宿 (Shinjuku),2012-01-08,04:00～04:59,0.0547,0.0498,0.0522,
新宿 (Shinjuku),2012-01-08,03:00～03:59,0.0544,0.0489,0.0518,
新宿 (Shinjuku),2012-01-08,02:00～02:59,0.0548,0.0496,0.0523,
新宿 (Shinjuku),2012-01-08,01:00～01:59,0.0547,0.0495,0.0521,
新宿 (Shinjuku),2012-01-08,00:00～00:59,0.0544,0.0482,0.0517,
新宿 (Shinjuku),2012-01-07,23:00～23:59,0.0544,0.0504,0.0520,
新宿 (Shinjuku),2012-01-07,22:00～22:59,0.0542,0.0489,0.0519,
新宿 (Shinjuku),2012-01-07,21:00～21:59,0.0534,0.0492,0.0515,
新宿 (Shinjuku),2012-01-07,20:00～20:59,0.0538,0.0493,0.0518,
新宿 (Shinjuku),2012-01-07,19:00～19:59,0.0539,0.0498,0.0518,
新宿 (Shinjuku),2012-01-07,18:00～18:59,0.0545,0.0495,0.0520,
新宿 (Shinjuku),2012-01-07,17:00～17:59,0.0542,0.0498,0.0517,
新宿 (Shinjuku),2012-01-07,16:00～16:59,0.0542,0.0486,0.0516,
新宿 (Shinjuku),2012-01-07,15:00～15:59,0.0548,0.0496,0.0516,
新宿 (Shinjuku),2012-01-07,14:00～14:59,0.0547,0.0487,0.0515,
新宿 (Shinjuku),2012-01-07,13:00～13:59,0.0541,0.0491,0.0519,
新宿 (Shinjuku),2012-01-07,12:00～12:59,0.0537,0.0497,0.0521,
新宿 (Shinjuku),2012-01-07,11:00～11:59,0.0548,0.0496,0.0521,
新宿 (Shinjuku),2012-01-07,10:00～10:59,0.0545,0.0501,0.0522,
新宿 (Shinjuku),2012-01-07,09:00～09:59,0.0548,0.0499,0.0521,
新宿 (Shinjuku),2012-01-07,08:00～08:59,0.0559,0.0498,0.0521,
新宿 (Shinjuku),2012-01-07,07:00～07:59,0.0546,0.0491,0.0523,
新宿 (Shinjuku),2012-01-07,06:00～06:59,0.0554,0.0500,0.0524,
新宿 (Shinjuku),2012-01-07,05:00～05:59,0.0558,0.0496,0.0524,
新宿 (Shinjuku),2012-01-07,04:00～04:59,0.0549,0.0500,0.0524,
新宿 (Shinjuku),2012-01-07,03:00～03:59,0.0560,0.0500,0.0528,
新宿 (Shinjuku),2012-01-07,02:00～02:59,0.0545,0.0499,0.0527,
新宿 (Shinjuku),2012-01-07,01:00～01:59,0.0564,0.0504,0.0528,
新宿 (Shinjuku),2012-01-07,00:00～00:59,0.0554,0.0506,0.0531,
新宿 (Shinjuku),2012-01-06,23:00～23:59,0.0550,0.0503,0.0528,
新宿 (Shinjuku),2012-01-06,22:00～22:59,0.0550,0.0501,0.0521,
新宿 (Shinjuku),2012-01-06,21:00～21:59,0.0545,0.0489,0.0520,
新宿 (Shinjuku),2012-01-06,20:00～20:59,0.0555,0.0489,0.0521,
新宿 (Shinjuku),2012-01-06,19:00～19:59,0.0551,0.0499,0.0520,
新宿 (Shinjuku),2012-01-06,18:00～18:59,0.0540,0.0498,0.0519,
新宿 (Shinjuku),2012-01-06,17:00～17:59,0.0540,0.0489,0.0513,
新宿 (Shinjuku),2012-01-06,16:00～16:59,0.0550,0.0497,0.0519,
新宿 (Shinjuku),2012-01-06,15:00～15:59,0.0546,0.0490,0.0522,
新宿 (Shinjuku),2012-01-06,14:00～14:59,0.0545,0.0491,0.0521,
新宿 (Shinjuku),2012-01-06,13:00～13:59,0.0544,0.0496,0.0521,
新宿 (Shinjuku),2012-01-06,12:00～12:59,0.0546,0.0491,0.0522,
新宿 (Shinjuku),2012-01-06,11:00～11:59,0.0540,0.0501,0.0519,
新宿 (Shinjuku),2012-01-06,10:00～10:59,0.0557,0.0500,0.0526,
新宿 (Shinjuku),2012-01-06,09:00～09:59,0.0548,0.0506,0.0529,
新宿 (Shinjuku),2012-01-06,08:00～08:59,0.0558,0.0507,0.0525,
新宿 (Shinjuku),2012-01-06,07:00～07:59,0.0552,0.0500,0.0526,
新宿 (Shinjuku),2012-01-06,06:00～06:59,0.0553,0.0491,0.0526,
新宿 (Shinjuku),2012-01-06,05:00～05:59,0.0551,0.0499,0.0522,
新宿 (Shinjuku),2012-01-06,04:00～04:59,0.0544,0.0500,0.0523,
新宿 (Shinjuku),2012-01-06,03:00～03:59,0.0542,0.0499,0.0521,
新宿 (Shinjuku),2012-01-06,02:00～02:59,0.0542,0.0503,0.0523,
新宿 (Shinjuku),2012-01-06,01:00～01:59,0.0548,0.0499,0.0520,
新宿 (Shinjuku),2012-01-06,00:00～00:59,0.0544,0.0497,0.0522,
新宿 (Shinjuku),2012-01-05,23:00～23:59,0.0547,0.0496,0.0521,
新宿 (Shinjuku),2012-01-05,22:00～22:59,0.0553,0.0487,0.0519,
新宿 (Shinjuku),2012-01-05,21:00～21:59,0.0544,0.0501,0.0520,
新宿 (Shinjuku),2012-01-05,20:00～20:59,0.0548,0.0496,0.0520,
新宿 (Shinjuku),2012-01-05,19:00～19:59,0.0537,0.0485,0.0520,
新宿 (Shinjuku),2012-01-05,18:00～18:59,0.0543,0.0490,0.0519,
新宿 (Shinjuku),2012-01-05,17:00～17:59,0.0545,0.0493,0.0522,
新宿 (Shinjuku),2012-01-05,16:00～16:59,0.0541,0.0478,0.0517,
新宿 (Shinjuku),2012-01-05,15:00～15:59,0.0549,0.0483,0.0515,
新宿 (Shinjuku),2012-01-05,14:00～14:59,0.0540,0.0485,0.0518,
新宿 (Shinjuku),2012-01-05,13:00～13:59,0.0542,0.0500,0.0523,
新宿 (Shinjuku),2012-01-05,12:00～12:59,0.0553,0.0488,0.0523,
新宿 (Shinjuku),2012-01-05,11:00～11:59,0.0551,0.0508,0.0530,
新宿 (Shinjuku),2012-01-05,10:00～10:59,0.0559,0.0508,0.0529,
新宿 (Shinjuku),2012-01-05,09:00～09:59,0.0563,0.0499,0.0531,
新宿 (Shinjuku),2012-01-05,08:00～08:59,0.0555,0.0505,0.0531,
新宿 (Shinjuku),2012-01-05,07:00～07:59,0.0572,0.0499,0.0524,
新宿 (Shinjuku),2012-01-05,06:00～06:59,0.0544,0.0492,0.0523,
新宿 (Shinjuku),2012-01-05,05:00～05:59,0.0548,0.0501,0.0527,
新宿 (Shinjuku),2012-01-05,04:00～04:59,0.0544,0.0492,0.0524,
新宿 (Shinjuku),2012-01-05,03:00～03:59,0.0553,0.0488,0.0524,
新宿 (Shinjuku),2012-01-05,02:00～02:59,0.0548,0.0500,0.0525,
新宿 (Shinjuku),2012-01-05,01:00～01:59,0.0551,0.0499,0.0526,
新宿 (Shinjuku),2012-01-05,00:00～00:59,0.0546,0.0489,0.0524,
新宿 (Shinjuku),2012-01-04,23:00～23:59,0.0576,0.0500,0.0528,
新宿 (Shinjuku),2012-01-04,22:00～22:59,0.0548,0.0503,0.0525,
新宿 (Shinjuku),2012-01-04,21:00～21:59,0.0548,0.0500,0.0527,
新宿 (Shinjuku),2012-01-04,20:00～20:59,0.0556,0.0510,0.0531,
新宿 (Shinjuku),2012-01-04,19:00～19:59,0.0555,0.0493,0.0533,
新宿 (Shinjuku),2012-01-04,18:00～18:59,0.0547,0.0505,0.0525,
新宿 (Shinjuku),2012-01-04,17:00～17:59,0.0542,0.0504,0.0521,
新宿 (Shinjuku),2012-01-04,16:00～16:59,0.0543,0.0488,0.0522,
新宿 (Shinjuku),2012-01-04,15:00～15:59,0.0549,0.0503,0.0526,
新宿 (Shinjuku),2012-01-04,14:00～14:59,0.0550,0.0500,0.0530,
新宿 (Shinjuku),2012-01-04,13:00～13:59,0.0552,0.0506,0.0530,
新宿 (Shinjuku),2012-01-04,12:00～12:59,0.0563,0.0513,0.0533,
新宿 (Shinjuku),2012-01-04,11:00～11:59,0.0559,0.0513,0.0537,
新宿 (Shinjuku),2012-01-04,10:00～10:59,0.0572,0.0504,0.0534,
新宿 (Shinjuku),2012-01-04,09:00～09:59,0.0566,0.0499,0.0536,
新宿 (Shinjuku),2012-01-04,08:00～08:59,0.0556,0.0502,0.0530,
新宿 (Shinjuku),2012-01-04,07:00～07:59,0.0555,0.0504,0.0532,
新宿 (Shinjuku),2012-01-04,06:00～06:59,0.0574,0.0503,0.0533,
新宿 (Shinjuku),2012-01-04,05:00～05:59,0.0556,0.0496,0.0528,
新宿 (Shinjuku),2012-01-04,04:00～04:59,0.0547,0.0509,0.0528,
新宿 (Shinjuku),2012-01-04,03:00～03:59,0.0561,0.0499,0.0528,
新宿 (Shinjuku),2012-01-04,02:00～02:59,0.0553,0.0492,0.0524,
新宿 (Shinjuku),2012-01-04,01:00～01:59,0.0548,0.0505,0.0525,
新宿 (Shinjuku),2012-01-04,00:00～00:59,0.0553,0.0483,0.0525,
新宿 (Shinjuku),2012-01-03,23:00～23:59,0.0543,0.0504,0.0525,
新宿 (Shinjuku),2012-01-03,22:00～22:59,0.0558,0.0500,0.0522,
新宿 (Shinjuku),2012-01-03,21:00～21:59,0.0542,0.0501,0.0524,
新宿 (Shinjuku),2012-01-03,20:00～20:59,0.0548,0.0495,0.0524,
新宿 (Shinjuku),2012-01-03,19:00～19:59,0.0540,0.0484,0.0520,
新宿 (Shinjuku),2012-01-03,18:00～18:59,0.0551,0.0482,0.0519,
新宿 (Shinjuku),2012-01-03,17:00～17:59,0.0542,0.0496,0.0519,
新宿 (Shinjuku),2012-01-03,16:00～16:59,0.0544,0.0499,0.0524,
新宿 (Shinjuku),2012-01-03,15:00～15:59,0.0551,0.0492,0.0521,
新宿 (Shinjuku),2012-01-03,14:00～14:59,0.0546,0.0496,0.0521,
新宿 (Shinjuku),2012-01-03,13:00～13:59,0.0547,0.0491,0.0522,
新宿 (Shinjuku),2012-01-03,12:00～12:59,0.0542,0.0496,0.0521,
新宿 (Shinjuku),2012-01-03,11:00～11:59,0.0545,0.0499,0.0521,
新宿 (Shinjuku),2012-01-03,10:00～10:59,0.0551,0.0498,0.0523,
新宿 (Shinjuku),2012-01-03,09:00～09:59,0.0559,0.0500,0.0525,
新宿 (Shinjuku),2012-01-03,08:00～08:59,0.0552,0.0498,0.0523,
新宿 (Shinjuku),2012-01-03,07:00～07:59,0.0558,0.0499,0.0525,
新宿 (Shinjuku),2012-01-03,06:00～06:59,0.0551,0.0504,0.0526,
新宿 (Shinjuku),2012-01-03,05:00～05:59,0.0559,0.0496,0.0528,
新宿 (Shinjuku),2012-01-03,04:00～04:59,0.0544,0.0501,0.0524,
新宿 (Shinjuku),2012-01-03,03:00～03:59,0.0557,0.0500,0.0527,
新宿 (Shinjuku),2012-01-03,02:00～02:59,0.0549,0.0507,0.0525,
新宿 (Shinjuku),2012-01-03,01:00～01:59,0.0548,0.0487,0.0523,
新宿 (Shinjuku),2012-01-03,00:00～00:59,0.0555,0.0497,0.0522,
新宿 (Shinjuku),2012-01-02,23:00～23:59,0.0549,0.0500,0.0523,
新宿 (Shinjuku),2012-01-02,22:00～22:59,0.0552,0.0499,0.0526,
新宿 (Shinjuku),2012-01-02,21:00～21:59,0.0546,0.0503,0.0525,
新宿 (Shinjuku),2012-01-02,20:00～20:59,0.0556,0.0494,0.0526,
新宿 (Shinjuku),2012-01-02,19:00～19:59,0.0559,0.0497,0.0523,
新宿 (Shinjuku),2012-01-02,18:00～18:59,0.0548,0.0500,0.0522,
新宿 (Shinjuku),2012-01-02,17:00～17:59,0.0545,0.0499,0.0521,
新宿 (Shinjuku),2012-01-02,16:00～16:59,0.0555,0.0493,0.0523,
新宿 (Shinjuku),2012-01-02,15:00～15:59,0.0555,0.0499,0.0524,
新宿 (Shinjuku),2012-01-02,14:00～14:59,0.0555,0.0502,0.0524,
新宿 (Shinjuku),2012-01-02,13:00～13:59,0.0556,0.0507,0.0528,
新宿 (Shinjuku),2012-01-02,12:00～12:59,0.0553,0.0494,0.0530,
新宿 (Shinjuku),2012-01-02,11:00～11:59,0.0567,0.0513,0.0540,
新宿 (Shinjuku),2012-01-02,10:00～10:59,0.0572,0.0521,0.0546,
新宿 (Shinjuku),2012-01-02,09:00～09:59,0.0578,0.0523,0.0545,
新宿 (Shinjuku),2012-01-02,08:00～08:59,0.0572,0.0511,0.0541,
新宿 (Shinjuku),2012-01-02,07:00～07:59,0.0567,0.0504,0.0543,
新宿 (Shinjuku),2012-01-02,06:00～06:59,0.0574,0.0521,0.0543,
新宿 (Shinjuku),2012-01-02,05:00～05:59,0.0562,0.0516,0.0540,
新宿 (Shinjuku),2012-01-02,04:00～04:59,0.0562,0.0528,0.0542,
新宿 (Shinjuku),2012-01-02,03:00～03:59,0.0565,0.0514,0.0537,
新宿 (Shinjuku),2012-01-02,02:00～02:59,0.0565,0.0506,0.0539,
新宿 (Shinjuku),2012-01-02,01:00～01:59,0.0552,0.0510,0.0532,
新宿 (Shinjuku),2012-01-02,00:00～00:59,0.0561,0.0509,0.0531,
